DELTA 2 R/B (25876 NORAD) Tracking and Keplerian Element Data

This shows tracking and keplerian element data for the satellite.

Feedback or suggestion? Click here.




ElementValue
Catalog25876
NameDELTA 2 R/B
Epoch Orbit25202
Epoch Day12.78115904
Epoch Year2024
RAAN194.4271
Inclination51.7615
Eccentricity0.0520874
Argument of Perigee193.209
Mean Anonmoly165.4747
Mean Motion14.07298828
Decay Rate3.496E-05
L11 25876U 99041E 24012.78115904 .00003496 00000+0 61801-3 0 9995
L22 25876 51.7615 194.4271 0520874 193.2090 165.4747 14.07298828252027



Live tracking and technical data element details for DELTA 2 R/B (NORAD 25876). DELTA 2 R/B can be tracked NOW for your location showing map with azimuth and elevation plus other details from your city location.







IsCatalogInMostPopularTable: catalog: 25876, numindb: 178
Update: records affected: 1



GetName: 25876 DELTA 2 R/B

Hit Count: updated at: Sun, 14 Apr 2024 23:29:32 GMT